Regional Weather Roundup
Issued by NWS

Home | Current Version | Previous Version | Graphics & Text | Print | Product List | Glossary On
Versions: 1 2 3 4 5 6 7 8 9 10 11 12 13 14 15 16 17 18 19 20 21 22 23 24 25 26 27 28 29 30 31 32 33 34 35 36 37 38 39 40 41 42 43 44 45 46 47 48 49 50
000
ASUS43 KMPX 271401
RWRMN
WEATHER ROUNDUP FOR MINNESOTA
NATIONAL WEATHER SERVICE TWIN CITIES/CHANHASSEN MN
900 AM CDT SAT AUG 27 2016


NOTE: "FAIR" INDICATES FEW OR NO CLOUDS BELOW 12,000 FEET WITH NO
SIGNIFICANT WEATHER AND/OR OBSTRUCTIONS TO VISIBILITY. N/A MEANS
CURRENT SKY AND/OR WEATHER CONDITIONS ARE NOT AVAILABLE.

MNZ060>063-068>070-271500-
   Twin Cities Metro

CITY           SKY/WX    TMP DP  RH WIND       PRES   REMARKS
TWIN CITIES    CLOUDY    64  59  83 E8        30.07S
ST PAUL        PTSUNNY   64  59  83 E6        30.07F
CRYSTAL        LGT RAIN  63  59  87 NE5       30.06F
BLAINE         LGT RAIN  64  63  94 E5        30.07F
LAKEVILLE      MOSUNNY   61  61 100 E5        30.07F
EDEN PRAIRIE   LGT RAIN  65  60  84 SE9       30.06S
LAKEVILLE      MOSUNNY   61  61 100 E5        30.07F
SOUTH ST PAUL  CLOUDY    63  60  91 SE3       30.07S
LAKE ELMO      PTSUNNY   63  59  88 E5        30.08F
$$
MNZ001>005-007-008-013>017-022>024-027-028-271500-
   Northwest Minnesota

CITY           SKY/WX    TMP DP  RH WIND       PRES   REMARKS
BEMIDJI        CLOUDY    60  57  90 SE7       30.02F
HALLOCK        CLOUDY    59  57  94 S8        29.95R
ROSEAU         CLOUDY    63  57  82 S10       29.98R
WARROAD        MOSUNNY   63  57  82 S7        29.99S
THIEF RVR FALL LGT RAIN  59  58  96 W8        30.02R FOG
CROOKSTON      RAIN      59  57  94 SE8         N/A
FOSSTON        CLOUDY    59  57  94 SE6       30.00S
DETROIT LAKES  MOSUNNY   64  59  82 SE13      30.01F
MOORHEAD       CLOUDY    63  59  88 S14       29.98R
PARK RAPIDS    CLOUDY    62  56  80 SE10      30.03F
MAHNOMEN       FAIR      63  58  83 S8G16     29.99S
$$
MNZ006-009>011-018-025>026-271500-
   North Central Minnesota

CITY           SKY/WX    TMP DP  RH WIND       PRES   REMARKS
BAUDETTE       CLOUDY    62  57  83 S9        30.00F
FLAG ISLAND    CLOUDY    66  59  77 CALM      29.97F HAZE
INTL FALLS     CLOUDY    66  57  72 VRB3      30.04F
WASKISH        CLOUDY    63  57  82 S7        30.02F
BIG FORK       PTSUNNY   64  57  77 S5        30.05F
LONGVILLE      LGT RAIN  61  57  88 E3        30.05F
GRAND RAPIDS   CLOUDY    59  57  93 SE7       30.09F
CRANE LAKE     CLOUDY    61  55  82 S3        30.09S
ORR            CLOUDY    61  54  77 CALM      30.04F
COOK           CLOUDY    61  55  82 SE5       30.08F
WALKER         PTSUNNY   61  56  85 SE6       30.03F
$$
MNZ012-019>021-037-271500-
   Northeast Minnesota

CITY           SKY/WX    TMP DP  RH WIND       PRES   REMARKS
DULUTH         LGT RAIN  60  59  96 SE8       30.10F
ELY            CLOUDY    59  54  82 CALM      30.09F
HIBBING        CLOUDY    56  55  97 CALM      30.09F
EVELETH        CLOUDY    58  56  94 CALM      30.10F
DULUTH HARBOR  MOSUNNY   63  57  82 CALM      30.10F
TWO HARBORS    LGT RAIN  64  59  82 E3        30.09F
SILVER BAY     CLOUDY    63  61  94 CALM      30.10S
G MARAIS ARPRT FOG       57  55  94 CALM      30.14F VSB 3/4
$$
MNZ029>031-032-039>041-046>048-054>057-064-271500-
   West Central Minnesota

CITY           SKY/WX    TMP DP  RH WIND       PRES   REMARKS
FERGUS FALLS   CLOUDY    63  59  88 SE9       30.02S
WHEATON        MOSUNNY   64  61  88 SE10      30.01S
MORRIS         CLOUDY    63  61  94 SE9       30.01F
ALEXANDRIA     CLOUDY    62  58  86 SE10      30.05F
ELBOW LAKE     CLOUDY    61  58  91 E10       30.02S
GLENWOOD       CLOUDY    61  59  94 SE6       30.05F
APPLETON       CLOUDY    63  57  82 SE7       30.02S
BENSON         CLOUDY    63  57  82 S7        30.04S
ORTONVILLE     SUNNY     63  59  88 SE6       30.01S
MADISON        CLOUDY    63  61  94 SE7       30.02F
WILLMAR        LGT RAIN  63  61  94 SE6       30.07S
$$
MNZ033>034-036-042>043-049>051-058-059-271500-
   Central Minnesota

CITY           SKY/WX    TMP DP  RH WIND       PRES   REMARKS
ST CLOUD       CLOUDY    60  60 100 SE5       30.07S
SAUK CENTRE    PTSUNNY   60  58  94 SE7       30.06F
PAYNESVILLE    DRIZZLE   61  61 100 SE7       30.06F
AITKIN         CLOUDY    63  55  77 S3        30.07S
PINE RIVER     PTSUNNY   61  57  88 SE7       30.09F
BRAINERD       CLOUDY    60  57  89 SE5       30.07S
STAPLES        PTSUNNY   61  57  88 SE5       30.05S
LONG PRAIRIE   CLOUDY    59  57  94 E7        30.06F
LITTLE FALLS   CLOUDY    59  55  88 SE6       30.06F
LITCHFIELD     RAIN      63  61  94 E5        30.07S
BUFFALO        CLOUDY    62  59  90 CALM      30.08S
MAPLE LAKE     CLOUDY    63  61  96 CALM      30.08R
HUTCHINSON     LGT RAIN  60  59  94 CALM      30.08R
$$
MNZ037-044-045-052-053-271500-
   East Central Minnesota

CITY           SKY/WX    TMP DP  RH WIND       PRES   REMARKS
PRINCETON      LGT RAIN  61  61 100 E5        30.07F
MORA           LGT RAIN  55  54  94 SE6       30.10F
CAMBRIDGE      LGT RAIN  63  55  77 E5        30.06F
RUSH CITY      RAIN      59  57  92 CALM      30.09F
MOOSE LAKE     LGT RAIN  59  55  88 CALM      30.08S
HINCKLEY       RAIN      59  57  94 CALM      30.10S
CLOQUET        CLOUDY    57  55  94 CALM      30.10S
MCGREGOR       CLOUDY    59  55  88 SE6       30.09S
$$
MNZ071>073-080-081-089-090-097-098-271500-
   Southwest Minnesota

CITY           SKY/WX    TMP DP  RH WIND       PRES   REMARKS
MONTEVIDEO     DRIZZLE   61  61 100 S8        30.05F
GRANITE FALLS  DRIZZLE   62  60  95 E5        30.06S
CANBY          SUNNY     62  59  90 E10       30.03F
MARSHALL       CLOUDY    60  59  96 SE9       30.04F
REDWOOD FALLS  HVY RAIN  59  57  93 NE3       30.06S FOG
OLIVIA         RAIN      59  55  88 E6        30.06S
PIPESTONE      CLOUDY    61  59  94 E5        30.03F
WINDOM         CLOUDY    61  61 100 E6        30.04F
WORTHINGTON    CLOUDY    61  60  97 SE6       30.04F
JACKSON          N/A     61  59  94 CALM      30.05F FOG
TRACY          CLOUDY    60  60  99 E6        30.06R FOG
SLAYTON        CLOUDY    57  57 100 CALM      30.06R
$$
MNZ065>067-074>077-082>085-091>093-271500-
   South Central Minnesota

CITY           SKY/WX    TMP DP  RH WIND       PRES   REMARKS
MANKATO        CLOUDY    61  57  88 E8        30.06S
NEW ULM          N/A     61  61 100 E5        30.06S
ST JAMES       HVY RAIN  55  55 100 E3        30.06S
FAIRMONT       LGT RAIN  61  60  97 SE7       30.04S FOG
GLENCOE        DRIZZLE   63  62  99 E3        30.07R
FARIBAULT      DRIZZLE   61  61 100 NE3       30.07S
OWATONNA       DRIZZLE   63  59  88 E7        30.06S
WASECA         RAIN      59  57  94 E9        30.06F
ALBERT LEA     RAIN      61  61 100 E5        30.05S
$$
MNZ078>079-086>088-094>096-271500-
   Southeast Minnesota

CITY           SKY/WX    TMP DP  RH WIND       PRES   REMARKS
ROCHESTER      CLOUDY    62  60  93 SE10      30.07R
RED WING       CLOUDY    64  59  82 E5        30.06F
STANTON        CLOUDY    63  61  94 CALM      30.06R
DODGE CENTER   CLOUDY    61  59  94 E6        30.06S
WINONA         CLOUDY    63  59  88 E9        30.07S
AUSTIN         RAIN      61  57  88 SE9       30.05S
PRESTON        CLOUDY    61  58  90 SE7       30.07S
$$
ABBREVIATIONS USED IN REMARKS
   TC - TEMPERATURES IN CELSIUS
  WCI - WIND CHILL INDEX
   HX - HEAT INDEX
  VSB - VISIBILITY
$$




USA.gov is the U.S. government's official web portal to all federal, state and local government web resources and services.